Regional Weather Roundup
Issued by NWS Austin/San Antonio, TX

Home | Current Version | Previous Version | Text Only | Print | Product List | Glossary On
Versions: 1 2 3 4 5 6 7 8 9 10 11 12 13 14 15 16 17 18 19 20 21 22 23 24 25 26 27 28 29 30 31 32 33 34 35 36 37 38 39 40 41 42 43 44 45 46 47 48 49 50
801
ASUS44 KEWX 201401
RWREWX
SOUTH TEXAS REGIONAL WEATHER ROUNDUP
NATIONAL WEATHER SERVICE AUSTIN/SAN ANTONIO TX
900 AM CDT WED SEP 20 2017

NOTE: "FAIR" INDICATED FEW OR NO CLOUDS BELOW 12,000 FEET WITH NO
SIGNIFICANT WEATHER AND/OR OBSTRUCTIONS TO VISIBILITY.

* - THESE STATIONS ARE NOT NWS OR FAA STATIONS...AND ARE NOT SUBJECT
    TO NWS AND FAA QUALITY CONTROL.

TXZ171-172-183>190-201500-
TEXAS HILL COUNTRY AND EDWARDS PLATEAU

CITY           SKY/WX    TMP DP  RH WIND       PRES   REMARKS
JUNCTION       SUNNY     76  71  85 S8        29.94R
*LLANO         SUNNY     77  73  88 CALM      29.96R
BURNET         CLOUDY    77  72  84 S13G18    29.96R
*HORSESHOE BAY CLOUDY    78  72  81 S5        29.93S
*KERRVILLE     CLOUDY    76  73  88 S8        29.96R
*FREDERICKSBRG CLOUDY    75  69  81 S6        29.96R
*ROCKSPRINGS   NOT AVBL
*BOERNE STAGE  CLOUDY    75  70  83 S9        29.97S
*CASTROVILLE   CLOUDY    78  74  85 SE10      29.94R
HONDO          CLOUDY    79  74  84 S10       29.93R
*UVALDE        CLOUDY    75  73  92 SE8       29.93R FOG
DEL RIO        MOSUNNY   78  73  84 E12       29.89R
LAUGHLIN AFB   PTSUNNY   78  72  83 SE14      29.90R
CARRIZO SPRGS  SUNNY     77  73  88 SE6       29.88R
*EAGLE PASS    SUNNY     77  72  83 E8        29.89R
$$

TXZ173-191>194-202-209-217>225-228-201500-
CENTRAL AND SOUTH CENTRAL TEXAS

CITY           SKY/WX    TMP DP  RH WIND       PRES   REMARKS
GEORGETOWN     CLOUDY    79  73  82 S15       29.94R
AUSTIN/BERGSTM MOSUNNY   81  76  84 S15       29.92R
AUSTIN/MABRY   PTSUNNY   80  74  81 VRB7      29.93S
*AUSTIN/EXEC   MOSUNNY   79  75  89 S9        29.93R
*LAGO VISTA    PTSUNNY   78  74  86 S7G16     29.95R
SAN MARCOS     CLOUDY    80  75  84 S14       29.94R
NEW BRAUNFELS  CLOUDY    81  74  79 S12       29.92R
RANDOLPH AFB   CLOUDY    79  77  94 S14       29.94R
PT SAN ANTONIO CLOUDY    79  74  82 SE9       29.92R
SAN ANTONIO    PTSUNNY   80  72  76 S10       29.94R
STINSON FIELD  CLOUDY    81  75  82 SE9       29.92R
*LA GRANGE     CLOUDY    79  78  98 S6        29.92R
*GIDDINGS      CLOUDY    76  74  92 S7        29.95R
*GONZALES      CLOUDY    79  79 100 SE7       29.93R FOG
$$

TXZ163>164-176>182-195>201-210>213-226-227-235-201500-
SOUTHEAST TEXAS

CITY           SKY/WX    TMP DP  RH WIND       PRES   REMARKS
COLLEGE STN    CLOUDY    80  77  90 S10       29.94R
*BRYAN         CLOUDY    79  78  98 S7        29.96R
*CALDWELL      CLOUDY    80  76  90 S10       29.94R
*CROCKETT      CLOUDY    79  75  89 S10       29.98S
*BRENHAM       CLOUDY    80  78  93 S9        29.95R
HUNTSVILLE     MOSUNNY   81  75  82 S9        29.95R
CONROE         MOSUNNY   80  77  90 S6        29.95R
HOUSTON BUSH   MOSUNNY   83  77  82 S7        29.95R HX  92
HOUSTON HOBBY  MOSUNNY   84  77  79 S6        29.94R HX  94
*HOUSTON SW AP SUNNY     80  78  94 S3        29.95S
PEARLAND       MOSUNNY   84  77  79 S7        29.96R HX  94
HOUSTON HOOKS  MOSUNNY   82  77  84 S8        29.95R HX  90
ELLINGTON FLD  MOSUNNY   81  75  83 SE3       29.96S
SUGAR LAND     SUNNY     83  79  88 S8        29.94R HX  94
*HOUSTON EXEC  MOSUNNY   81  77  89 S9        29.96R FOG
*CLEVELAND MUN PTSUNNY   79  78  97 CALM      29.97R FOG
*WHARTON       SUNNY     79  78  97 SE5       29.95R FOG
*COLUMBUS      FAIR      78  76  95 SW5       29.95R FOG
*EAGLE LAKE    CLOUDY    79  79 100 SE5       29.94R FOG
$$

TXZ214>216-236>238-201500-
THE UPPER TEXAS COAST

CITY           SKY/WX    TMP DP  RH WIND       PRES   REMARKS
*ORANGE        MOSUNNY   83  79  89 S9        29.98S HX  94
PORT ARTHUR    PTSUNNY   85  78  80 S9        29.95S HX  96
GALVESTON      MOSUNNY   86  79  79 S13       29.96R HX  99
ANGLETON       SUNNY     82  78  88 S5        29.95R HX  91
*BAY CITY      SUNNY     80  80  98 SE3       29.94R FOG
PALACIOS       SUNNY     83  77  82 S12       29.93R HX  92
$$

TXZ229>234-239>247-201500-
TEXAS COASTAL BEND AND RIO GRANDE PLAINS

CITY           SKY/WX    TMP DP  RH WIND       PRES   REMARKS
VICTORIA       SUNNY     81  77  88 S7        29.93R FOG
*BEEVILLE      SUNNY     78  78 100 S7        29.92R
ROCKPORT       MOSUNNY   85  76  74 S12G18    29.90R HX  94
*PORT ARANSAS  NOT AVBL
*PORT LAVACA   NOT AVBL
*INGLESIDE     NOT AVBL
CORPUS CHRISTI PTSUNNY   83  78  85 S12       29.91R HX  93
CORPUS NAS     PTSUNNY   86  78  77 S14       29.90R HX  98
*ROBSTOWN      SUNNY     81  77  87 SE6       29.91R
ALICE          MOSUNNY   82  76  81 S13       29.90R
KINGSVILLE NAS PTSUNNY   83  79  88 SE14      29.90R HX  94
COTULLA        MOSUNNY   80  74  81 SE10      29.89R
*FAITH RANCH   SUNNY     81  73  78 SE8       29.89R
LAREDO         MOSUNNY   82  74  76 SE18      29.88R
$$

TXZ248>255-201500-
DEEP SOUTH TEXAS

CITY           SKY/WX    TMP DP  RH WIND       PRES   REMARKS
BROWNSVILLE    SUNNY     83  79  88 SE10      29.91R HX  94
PORT ISABEL    SUNNY     85  77  77 S12       29.90R HX  95
*SOUTH PADRE   NOT AVBL
HARLINGEN      MOSUNNY   83  78  85 SE13      29.89R HX  93
*HEBBRONVILLE  CLOUDY    77  74  91 S7        29.91R
MCALLEN        PTSUNNY   84  76  76 S12       29.90R HX  93
*WESLACO       MOSUNNY   83  76  79 S8        29.89R HX  90
FALFURRIAS     MOSUNNY  -38  32 100 SE10      29.90R WCI -63
EDINBURG       SUNNY     82  76  81 SE6       29.90R HX  90
*ZAPATA        MOSUNNY   82  73  72 SE13      29.88R
$$

TXZ213>215-236>238-242>244-246-247-251-254-255-201500-
CMAN STATIONS

STATION/POSITION TIME  TEMP    WIND        PRES    WAVE
                       AIR SEA DIR/SP/G            HT/PER
                 (UTC) (F)     (DEG/KT/KT) (MB)    (FT/S)
SABINE PASS      1330   83 84  180/  8/ 14 1016.1
SEA RIM ST PARK  1300   83     180/ 11/ 14 1014.7
NORTH JETTY/GLS  1330      83  200/ 10/ 12 1013.8
EAGLE POINT      1330   83 84  210/  7/  8 1014.4
MORGANS POINT    1330   83 82  170/  5/  6 1014.0
PORT O`CONNOR    1330   83 84  180/ 12/ 14 1012.9
MALAQUITE BEACH  1330   84 85  160/ 13/ 16 1012.1
BAFFIN BAY       1330   83 82  160/ 11/ 14 1012.4
PORT ISABEL      1330   83 85  160/ 10/ 12 1012.5
$$




USA.gov is the U.S. government's official web portal to all federal, state and local government web resources and services.